User: anonymous   Login
Location: Unspecified
(0.0000°N, 0.0000°E)
Time: 12:42:57
(UTC+01:00)
Language:

Cosmos 773 Rocket - Orbit

View from above orbital plane
View from above orbital plane
View from above satellite
View from above satellite

Ground track
Ground track

The orbit data is extracted from the following two-line orbital elements,

1 08344U 75094B   16039.85852673  .00000161  00000-0  60620-4 0  9993
2 08344  74.0591 316.4623 0022165 338.6285  21.3941 14.39033804114576
Epoch (UTC): 08 February 2016 20:36:16
Eccentricity: 0.0022165
inclination: 74.0591°
perigee height: 746 km
apogee height: 777 km
right ascension of ascending node: 316.4623°
argument of perigee: 338.6285°
revolutions per day: 14.39033804
mean anomaly at epoch: 21.3941°
orbit number at epoch: 11457

The dashed part of the orbit path shows where the satellite is in the earth's shadow,  

DLR